Location: Newark
(47.5347°N, 5.5339°E)
Time: 07:25:20
(UTC+00:00)

ISS - Pass Details

Date: 26 September 2019
Orbit: 411 x 421 km, 51.6° (Epoch: 21 October)

Event Time Altitude Azimuth Distance (km) Brightness Sun altitude
Rises 19:18:04 0° 276° (W) 2,344 1.5 -19.0°
Reaches altitude 10° 19:20:15 10° 284° (WNW) 1,482 0.2 -19.4°
Maximum altitude 19:23:24 39° 355° (N) 630 -2.7 -19.9°
Enters shadow 19:23:54 37° 20° (NNE) 666 -2.8 -20.0°
